[[{"header":{"parameterUnit":"m.s-1","parameterCategory":1,"la1":30.2991,"la2":30.254,"lo1":-89.0895,"lo2":-89.0444,"dy":0.0017,"dx":0.0017,"nx":28,"ny":28,"refTime":"2024-08-10T21:00:00:Z","depth":0,"parameterNumber":2,"parameterNumberName":"U-component_of_WINDS"},"data":[0,0,0,0,0,0,0,0,0,0,0,0,0,0,0,0,0,0,0,0,0,0,0,0,0,0,0,0,0,0,0,0,0,0,0,0,0,0,0,0,0,0,0,0,0,0,0,0,0,0,0,0,0,0,0,0,0,0,-1.315,-1.315,0,-1.3201,-1.3202,-1.3202,-1.3147,-1.3145,-1.3143,-1.3141,-1.3195,-1.3198,-1.3202,0,0,0,0,0,0,0,0,0,0,0,0,0,-1.3004,-1.3007,-1.315,-1.315,-1.3151,-1.3201,-1.3202,-1.3203,-1.3147,-1.3145,-1.3142,-1.314,-1.3194,-1.3198,-1.3202,0,0,0,0,0,0,0,0,0,0,0,0,0,-1.3063,-1.3008,-1.315,-1.313,-1.3128,-1.3201,-1.3202,-1.3203,-1.3148,-1.3145,-1.3142,-1.3139,-1.3192,-1.3197,-1.3202,-1.3298,0,0,-1.3218,-1.322,0,0,0,0,0,0,0,0,-1.306,-1.3068,-1.3132,-1.3131,-1.313,-1.3164,-1.317,-1.3235,-1.3149,-1.3141,-1.3141,-1.3137,-1.3187,-1.3193,-1.3209,-1.3301,-1.3303,-1.3219,-1.3222,-1.3224,-1.3225,0,0,0,0,0,0,0,-1.3056,-1.3066,-1.317,-1.3133,-1.3132,-1.3118,-1.3123,-1.3182,-1.3181,-1.3141,-1.3137,-1.3144,-1.3186,-1.3205,-1.321,-1.3304,-1.3218,-1.3223,-1.3226,-1.3228,-1.3475,-1.3479,0,0,0,0,0,0,-1.3054,-1.3063,-1.3169,-1.3172,-1.3086,-1.3123,-1.3129,-1.3157,-1.318,-1.3181,-1.3147,-1.3141,-1.3197,-1.3204,-1.3212,-1.3326,-1.3224,-1.3229,-1.3232,-1.3472,-1.3476,-1.348,0,0,0,0,0,0,-1.3051,-1.3064,-1.3166,-1.3116,-1.3128,-1.3129,-1.3161,-1.3159,-1.3178,-1.3185,-1.3184,-1.3166,-1.3195,-1.3205,-1.3277,-1.3327,-1.3231,-1.3236,-1.3468,-1.3473,-1.3478,-1.3554,0,0,0,0,0,0,-1.3047,-1.3063,-1.3099,-1.3117,-1.3131,-1.3231,-1.3164,-1.3163,-1.3186,-1.318,-1.3202,-1.3203,-1.3193,-1.327,-1.3282,-1.3332,-1.324,-1.3463,-1.347,-1.3476,-1.3547,-1.3561,-1.3573,0,0,0,0,0,-1.3042,-1.3119,-1.3101,-1.3115,-1.3177,-1.3234,-1.3242,-1.3228,-1.3191,-1.3227,-1.3232,-1.3202,-1.3319,-1.3277,-1.3291,-1.3343,-1.346,-1.3468,-1.3476,-1.3541,-1.3558,-1.3573,0,0,0,0,0,0,-1.3107,-1.3121,-1.3102,-1.3187,-1.3209,-1.3224,-1.327,-1.3247,-1.3281,-1.3274,-1.3256,-1.3262,-1.3339,-1.3348,-1.3301,-1.3437,-1.3383,-1.3394,-1.3428,-1.3445,-1.3457,-1.3454,-1.3244,0,0,0,0,0,-1.3131,-1.3176,-1.3186,-1.326,-1.3272,-1.3269,-1.3294,-1.3282,-1.3304,-1.3314,-1.3324,-1.3347,-1.3389,-1.3417,-1.3456,-1.3547,-1.3552,-1.359,-1.3603,-1.3614,-1.3624,-1.3673,-1.369,-1.3506,-1.3506,-1.3506,0,0,-1.3182,-1.3195,-1.3225,-1.3274,-1.329,-1.3337,-1.3278,-1.333,-1.3365,-1.3322,-1.3391,-1.3399,-1.3424,-1.3506,-1.3543,-1.3516,-1.3675,-1.3624,-1.3632,-1.3636,-1.3682,-1.37,-1.3715,-1.3511,-1.351,-1.3509,0,0,-1.3299,-1.3313,-1.3376,-1.3393,-1.3418,-1.3415,-1.3431,-1.3449,-1.3452,-1.3521,-1.3489,-1.353,-1.3603,-1.3622,-1.3642,-1.3764,-1.3739,-1.3778,-1.3846,-1.3894,-1.3909,-1.3921,-1.3965,-1.3981,-1.3787,-1.3788,-1.3788,0,-1.3359,-1.3428,-1.3412,-1.3467,-1.3489,-1.3451,-1.3515,-1.3533,-1.3569,-1.3586,-1.3555,-1.3645,-1.366,-1.3746,-1.3776,-1.3792,-1.3809,-1.3775,-1.3908,-1.392,-1.3932,-1.3974,-1.3991,-1.3792,-1.3792,-1.3791,-1.3791,0,-1.3501,-1.355,-1.3598,-1.3634,-1.3661,-1.3721,-1.3713,-1.3743,-1.3728,-1.3729,-1.3799,-1.3815,-1.3856,-1.3875,-1.3862,-1.396,-1.3942,-1.391,-1.3856,-1.3955,-1.3994,-1.4009,-1.3799,-1.3797,-1.3796,-1.3794,0,0,-1.3662,-1.3687,-1.3705,-1.372,-1.3744,-1.3782,-1.3839,-1.3879,-1.3905,-1.3931,-1.3979,-1.4041,-1.4011,-1.4033,-1.4021,-1.4063,-1.416,-1.4026,-1.4026,-1.405,-1.4268,-1.4293,-1.4312,-1.4142,-1.4145,-1.4148,-1.4266,0,-1.3779,-1.3878,-1.3864,-1.396,-1.4005,-1.3969,-1.4019,-1.4039,-1.4041,-1.4079,-1.4081,-1.4125,-1.4083,-1.4096,-1.4135,-1.4139,-1.4203,-1.4131,-1.4187,-1.4189,-1.4182,-1.4332,-1.4358,-1.447,-1.4281,-1.4284,-1.4286,0,-1.393,-1.3961,-1.4061,-1.4077,-1.4095,-1.4141,-1.4176,-1.4213,-1.4235,-1.4233,-1.4257,-1.4238,-1.4295,-1.4239,-1.4318,-1.4269,-1.4291,-1.4297,-1.4301,-1.4306,-1.4244,-1.4342,-1.4505,-1.4522,-1.431,-1.4308,-1.4306,0,-1.4037,-1.4104,-1.4172,-1.4186,-1.4208,-1.424,-1.4251,-1.4269,-1.4294,-1.4325,-1.4341,-1.4378,-1.4399,-1.4428,-1.4418,-1.4379,-1.4499,-1.4443,-1.45,-1.45,-1.4528,-1.4526,-1.4697,-1.4541,-1.4541,-1.4541,-1.454,0,-1.417,-1.4233,-1.4221,-1.4263,-1.4332,-1.4315,-1.4384,-1.439,-1.4407,-1.4449,-1.4421,-1.4461,-1.4446,-1.4486,-1.4479,-1.4545,-1.4555,-1.4555,-1.4553,-1.4558,-1.4558,-1.4573,-1.4565,-1.4545,-1.4544,-1.4543,-1.4542,0,-1.4302,-1.4297,-1.4369,-1.4382,-1.4387,-1.4438,-1.4449,-1.4489,-1.4488,-1.4542,-1.4554,-1.4553,-1.4598,-1.4591,-1.4642,-1.4637,-1.472,-1.4708,-1.4713,-1.471,-1.4767,-1.4762,-1.4954,-1.4978,-1.4806,-1.4808,-1.4809,0,-1.4388,-1.4435,-1.4454,-1.448,-1.4492,-1.4535,-1.456,-1.4545,-1.4572,-1.4601,-1.4637,-1.4679,-1.4712,-1.4786,-1.479,-1.4829,-1.4817,-1.4882,-1.4823,-1.4827,-1.4818,-1.4816,-1.482,-1.4894,-1.4896,-1.4897,-1.4899,0,-1.454,-1.4535,-1.4572,-1.4607,-1.4638,-1.4665,-1.469,-1.4713,-1.4701,-1.4732,-1.4778,-1.4804,-1.4855,-1.4897,-1.4933,-1.4944,-1.492,-1.4917,-1.4932,-1.4938,-1.4939,-1.4939,-1.4745,-1.4913,-1.4911,-1.491,-1.491,-1.4909,-1.4652,-1.4692,-1.4711,-1.4753,-1.477,-1.4793,-1.4831,-1.4834,-1.4872,-1.4912,-1.4901,-1.4953,-1.4973,-1.5018,-1.5033,-1.5073,-1.5049,-1.5071,-1.5077,-1.5083,-1.509,-1.4932,-1.508,-1.5079,-1.5079,-1.5078,-1.5078,0,-1.4803,-1.4813,-1.4852,-1.4887,-1.492,-1.4893,-1.4919,-1.4948,-1.4994,-1.5015,-1.5048,-1.51,-1.5141,-1.5147,-1.5186,-1.5217,-1.5207,-1.5228,-1.5225,-1.5228,-1.5109,-1.5092,-1.5235,-1.5235,-1.5235,-1.5235,-1.5235,-1.5235,-1.4886,-1.4952,-1.4949,-1.5023,-1.5033,-1.5083,-1.51,-1.5121,-1.5138,-1.5197,-1.5231,-1.5235,-1.525,-1.5289,-1.5325,-1.5326,-1.5342,-1.5367,-1.5364,-1.5252,-1.5237,-1.5222,-1.5206,-1.5371,-1.5371,-1.548,-1.5481,-1.5482]},{"header":{"parameterUnit":"m.s-1","parameterCategory":1,"la1":30.2991,"la2":30.254,"lo1":-89.0895,"lo2":-89.0444,"dy":0.0017,"dx":0.0017,"nx":28,"ny":28,"refTime":"2024-08-10T21:00:00:Z","depth":0,"parameterNumber":3,"parameterNumberName":"V-component_of_WINDS"},"data":[0,0,0,0,0,0,0,0,0,0,0,0,0,0,0,0,0,0,0,0,0,0,0,0,0,0,0,0,0,0,0,0,0,0,0,0,0,0,0,0,0,0,0,0,0,0,0,0,0,0,0,0,0,0,0,0,0,0,-3.5129,-3.5129,0,-3.5133,-3.5133,-3.5133,-3.5061,-3.5059,-3.5057,-3.5055,-3.5059,-3.5061,-3.5063,0,0,0,0,0,0,0,0,0,0,0,0,0,-3.5058,-3.506,-3.5129,-3.5129,-3.5129,-3.5133,-3.5133,-3.5133,-3.5061,-3.5059,-3.5056,-3.5054,-3.5058,-3.5061,-3.5063,0,0,0,0,0,0,0,0,0,0,0,0,0,-3.5078,-3.506,-3.5129,-3.5093,-3.509,-3.5133,-3.5133,-3.5133,-3.5061,-3.5059,-3.5056,-3.5053,-3.5058,-3.506,-3.5063,-3.514,0,0,-3.5072,-3.5073,0,0,0,0,0,0,0,0,-3.5077,-3.5081,-3.5099,-3.5096,-3.5092,-3.5093,-3.5109,-3.5135,-3.5062,-3.5072,-3.5055,-3.5051,-3.5073,-3.5074,-3.5081,-3.514,-3.514,-3.5072,-3.5074,-3.5075,-3.5076,0,0,0,0,0,0,0,-3.5076,-3.508,-3.513,-3.5099,-3.5095,-3.5077,-3.5077,-3.5114,-3.5089,-3.5071,-3.5066,-3.5068,-3.5071,-3.5079,-3.5081,-3.514,-3.5072,-3.5075,-3.5077,-3.5078,-3.5259,-3.5262,0,0,0,0,0,0,-3.5079,-3.5079,-3.513,-3.513,-3.5077,-3.5081,-3.508,-3.5096,-3.5088,-3.5084,-3.507,-3.5064,-3.5075,-3.5078,-3.5081,-3.5168,-3.5075,-3.5078,-3.508,-3.5256,-3.526,-3.5263,0,0,0,0,0,0,-3.5078,-3.5084,-3.513,-3.5103,-3.5108,-3.5085,-3.5103,-3.5098,-3.5106,-3.5087,-3.5082,-3.5083,-3.5073,-3.5077,-3.5125,-3.5167,-3.5079,-3.5082,-3.5253,-3.5257,-3.5262,-3.5345,0,0,0,0,0,0,-3.5076,-3.5084,-3.5113,-3.5105,-3.511,-3.5175,-3.5106,-3.51,-3.5111,-3.5103,-3.5098,-3.5095,-3.5071,-3.5121,-3.5128,-3.517,-3.5084,-3.5249,-3.5255,-3.526,-3.5338,-3.5351,-3.5363,0,0,0,0,0,-3.5074,-3.5137,-3.5115,-3.5122,-3.5145,-3.5177,-3.518,-3.5151,-3.5115,-3.5143,-3.5131,-3.5095,-3.5162,-3.5127,-3.5134,-3.5177,-3.5246,-3.5253,-3.526,-3.5332,-3.5349,-3.5363,0,0,0,0,0,0,-3.5152,-3.5135,-3.5111,-3.5173,-3.5177,-3.5165,-3.52,-3.517,-3.5185,-3.5177,-3.5141,-3.5141,-3.5194,-3.5191,-3.5152,-3.525,-3.5197,-3.5206,-3.525,-3.5266,-3.5278,-3.5277,-3.5087,0,0,0,0,0,-3.5176,-3.5203,-3.5188,-3.5244,-3.5247,-3.5224,-3.5236,-3.5214,-3.5217,-3.5218,-3.521,-3.5214,-3.5235,-3.525,-3.5269,-3.5337,-3.5334,-3.537,-3.5383,-3.5393,-3.5401,-3.5435,-3.5451,-3.5286,-3.5286,-3.5286,0,0,-3.5227,-3.5221,-3.5241,-3.5259,-3.526,-3.5288,-3.5225,-3.5259,-3.5279,-3.5223,-3.5268,-3.5262,-3.5264,-3.5322,-3.5347,-3.532,-3.5446,-3.5402,-3.5411,-3.5413,-3.5444,-3.546,-3.5473,-3.5291,-3.529,-3.5289,0,0,-3.5333,-3.5332,-3.5378,-3.538,-3.5381,-3.5365,-3.5376,-3.5368,-3.5362,-3.5406,-3.5364,-3.5388,-3.5427,-3.5429,-3.5436,-3.5542,-3.5509,-3.555,-3.5615,-3.5649,-3.5662,-3.5673,-3.571,-3.5723,-3.5558,-3.5558,-3.5558,0,-3.5396,-3.5437,-3.5406,-3.5441,-3.545,-3.54,-3.5446,-3.5449,-3.5457,-3.5464,-3.5434,-3.548,-3.5478,-3.5536,-3.5562,-3.5569,-3.558,-3.555,-3.5662,-3.5673,-3.5683,-3.5718,-3.5732,-3.5563,-3.5562,-3.5562,-3.5561,0,-3.5514,-3.5543,-3.558,-3.5588,-3.5601,-3.5642,-3.5616,-3.5633,-3.561,-3.5596,-3.5642,-3.5637,-3.5654,-3.5666,-3.5644,-3.572,-3.5703,-3.5669,-3.5615,-3.5705,-3.5736,-3.5749,-3.557,-3.5568,-3.5566,-3.5565,0,0,-3.567,-3.5659,-3.5673,-3.5675,-3.5672,-3.5694,-3.5732,-3.5748,-3.5763,-3.577,-3.58,-3.5834,-3.5801,-3.5808,-3.5786,-3.5816,-3.5899,-3.5777,-3.5776,-3.5799,-3.5981,-3.6006,-3.6022,-3.5877,-3.5879,-3.5881,-3.598,0,-3.5772,-3.5836,-3.5808,-3.5875,-3.5901,-3.5853,-3.5886,-3.5888,-3.5877,-3.5897,-3.5884,-3.5908,-3.5864,-3.5868,-3.5895,-3.5883,-3.5935,-3.5876,-3.5904,-3.5905,-3.5904,-3.6039,-3.6066,-3.6159,-3.5993,-3.5995,-3.5996,0,-3.59,-3.5911,-3.598,-3.5971,-3.5981,-3.6011,-3.6023,-3.6043,-3.6044,-3.6033,-3.6041,-3.6012,-3.6048,-3.5995,-3.6044,-3.6004,-3.6015,-3.601,-3.6013,-3.6014,-3.5955,-3.6042,-3.6189,-3.6202,-3.6016,-3.6014,-3.6013,0,-3.6005,-3.6037,-3.6082,-3.6086,-3.6077,-3.6099,-3.6097,-3.6094,-3.6105,-3.6116,-3.6122,-3.6137,-3.6145,-3.6157,-3.6132,-3.6096,-3.6184,-3.613,-3.6175,-3.6176,-3.6195,-3.6194,-3.6344,-3.6204,-3.6204,-3.6204,-3.6203,0,-3.6121,-3.6165,-3.6129,-3.6157,-3.6204,-3.6172,-3.6219,-3.6211,-3.621,-3.6235,-3.6195,-3.6219,-3.6185,-3.6206,-3.6187,-3.623,-3.6234,-3.6226,-3.622,-3.6229,-3.623,-3.6234,-3.6226,-3.6207,-3.6206,-3.6206,-3.6205,0,-3.6246,-3.6224,-3.627,-3.6257,-3.6255,-3.629,-3.628,-3.6304,-3.629,-3.6322,-3.6328,-3.6305,-3.6328,-3.6304,-3.6325,-3.6312,-3.6369,-3.6354,-3.6369,-3.6364,-3.641,-3.6406,-3.6568,-3.6587,-3.6436,-3.6437,-3.6439,0,-3.6321,-3.6354,-3.6344,-3.6358,-3.6357,-3.638,-3.6391,-3.636,-3.6373,-3.6375,-3.64,-3.6419,-3.6432,-3.647,-3.6455,-3.6471,-3.6456,-3.6511,-3.6458,-3.6465,-3.6455,-3.6452,-3.6455,-3.6522,-3.6524,-3.6525,-3.6526,0,-3.6457,-3.6444,-3.646,-3.6473,-3.6487,-3.6495,-3.6501,-3.6514,-3.6482,-3.6499,-3.6521,-3.6531,-3.6552,-3.6571,-3.6582,-3.6579,-3.6547,-3.6543,-3.6554,-3.6563,-3.6569,-3.6565,-3.6397,-3.654,-3.6538,-3.6537,-3.6537,-3.6536,-3.6558,-3.6584,-3.6581,-3.66,-3.6601,-3.6607,-3.6629,-3.6617,-3.6635,-3.6649,-3.663,-3.6657,-3.6656,-3.6667,-3.6668,-3.6689,-3.6665,-3.6682,-3.6685,-3.669,-3.6696,-3.6567,-3.6691,-3.669,-3.669,-3.669,-3.6689,0,-3.669,-3.6685,-3.6703,-3.6712,-3.6727,-3.6696,-3.67,-3.6715,-3.6739,-3.674,-3.6754,-3.6779,-3.6797,-3.6784,-3.6799,-3.6818,-3.6803,-3.6822,-3.682,-3.682,-3.6717,-3.6705,-3.6834,-3.6834,-3.6834,-3.6834,-3.6834,-3.6834,-3.676,-3.6801,-3.6788,-3.6829,-3.6824,-3.685,-3.6855,-3.686,-3.6861,-3.689,-3.6904,-3.6896,-3.6891,-3.6905,-3.692,-3.6916,-3.6922,-3.6947,-3.6937,-3.6841,-3.6827,-3.6813,-3.6802,-3.6949,-3.6949,-3.7038,-3.7038,-3.7039]}]]